Location: Las Navas
(40.6024°N, 4.3345°W)
Time: 00:48:19
(UTC+00:00)

STARLINK-1113 - Pass Details

Date: 03 April 2020
Orbit: 548 x 551 km, 53.0° (Epoch: 27 May)

Event Time Altitude Azimuth Distance (km) Brightness Sun altitude
Rises 18:58:26 0° 312° (NW) 2,728 8.3 -3.4°
Reaches altitude 10° 19:00:50 10° 322° (NW) 1,832 7.1 -3.9°
Maximum altitude 19:04:39 34° 29° (NNE) 916 4.6 -4.6°
Drops below altitude 10° 19:08:28 10° 95° (E) 1,825 5.6 -5.3°
Enters shadow 19:09:12 - 99° (E) 2,094 5.9 -5.4°
